Ketchikan, AK

1:18 AM AKST on December 19, 2018 (GMT -0900)
Ketchikan International

Weather History for PAKT - April, 2018

Change the Weather History Date:

Thursday, April 19, 2018

  Actual Average Record
Temperature  
Mean Temperature 42 °F -  
Max Temperature 46 °F 48 °F 59 °F (1951)
Min Temperature 39 °F 36 °F 26 °F (1997)
Degree Days  
Heating Degree Days 22    
Moisture  
Dew Point 41 °F    
Average Humidity 89    
Maximum Humidity 97    
Minimum Humidity 81    
Precipitation  
Precipitation 1.56 in - - ()
Sea Level Pressure  
Sea Level Pressure 29.88 in    
Wind  
Wind Speed 19 mph (SE)    
Max Wind Speed 28 mph    
Max Gust Speed 44 mph    
Visibility 7 miles    
Events Rain    
Averages and records for this station are not official NWS values.
T = Trace of Precipitation, MM = Missing Value Source: NWS Daily Summary

Daily Weather History Graph

Daily Weather History Graph

Search for Another Location

Airport or City:

Astronomy

Apr. 19, 2018 Rise Set
Actual Time 5:32 AM AKDT 8:00 PM AKDT
Civil Twilight 4:52 AM AKDT 8:41 PM AKDT
Nautical Twilight 4:00 AM AKDT 9:33 PM AKDT
Astronomical Twilight 2:56 AM AKDT 10:38 PM AKDT
Moon 8:04 AM AKDT No Moon Set
Length of Visible Light 15h 48m
Length of Day
14h 27m
Waxing Crescent, 17% of the Moon is Illuminated
Apr 19
Waxing Crescent
Apr 22
First Quarter
Apr 29
Full
May 7
Last Quarter
May 15
New

Hourly Weather History & Observations

Time (AKDT) Temp. Windchill Dew Point Humidity Pressure Visibility Wind Dir Wind Speed Gust Speed Precip Events Conditions
12:33 AM 45.0 °F 36.4 °F 42.1 °F 90% 29.96 in 4.0 mi SE 23.0 mph 36.8 mph 0.06 in Rain Light Rain
12:53 AM 45.0 °F 36.0 °F 42.1 °F 90% 29.96 in 5.0 mi SE 25.3 mph 35.7 mph 0.08 in Rain Light Rain
1:53 AM 45.0 °F 36.4 °F 41.0 °F 86% 29.94 in 4.0 mi SE 23.0 mph 33.4 mph 0.09 in Rain Light Rain
2:53 AM 45.0 °F 35.6 °F 41.0 °F 86% 29.91 in 6.0 mi SE 27.6 mph 36.8 mph 0.14 in Rain Light Rain
3:53 AM 45.0 °F 35.8 °F 39.9 °F 82% 29.89 in 5.0 mi SE 26.5 mph 38.0 mph 0.10 in Rain Light Rain
4:53 AM 45.0 °F 35.8 °F 41.0 °F 86% 29.87 in 6.0 mi SE 26.5 mph 42.6 mph 0.09 in Rain Light Rain
5:53 AM 46.0 °F 37.4 °F 42.1 °F 86% 29.84 in 4.0 mi SE 25.3 mph 43.7 mph 0.10 in Rain Light Rain
6:01 AM 45.0 °F 35.8 °F 42.1 °F 90% 29.84 in 4.0 mi SSE 26.5 mph 40.3 mph 0.04 in Rain Rain
6:53 AM 46.0 °F 37.6 °F 43.0 °F 89% 29.83 in 4.0 mi SE 24.2 mph 35.7 mph 0.29 in Rain Rain
7:53 AM 44.1 °F 37.4 °F 42.1 °F 93% 29.84 in 6.0 mi SE 13.8 mph - 0.08 in Rain Light Rain
8:53 AM 45.0 °F 38.2 °F 43.0 °F 93% 29.83 in 5.0 mi SE 15.0 mph 23.0 mph 0.03 in Rain Light Rain
9:53 AM 44.1 °F 36.2 °F 41.0 °F 89% 29.83 in 4.0 mi SE 18.4 mph 29.9 mph 0.12 in Rain Light Rain
10:53 AM 44.1 °F 35.2 °F 41.0 °F 89% 29.84 in 4.0 mi SE 23.0 mph 28.8 mph 0.22 in Rain Rain
10:55 AM 44.1 °F 35.9 °F 41.0 °F 89% 29.84 in 4.0 mi SE 19.6 mph 29.9 mph 0.00 in Rain Rain
11:53 AM 45.0 °F 37.1 °F 42.1 °F 90% 29.84 in 3.0 mi SE 19.6 mph 32.2 mph 0.22 in Rain Rain
12:53 PM 44.6 °F 37.2 °F 42.8 °F 93% 29.84 in 3.0 mi SE 17.3 mph 27.6 mph N/A Rain Rain
1:53 PM 46.4 °F 39.5 °F 42.8 °F 87% 29.86 in 3.0 mi SE 17.3 mph 25.3 mph N/A Rain Light Rain
2:53 PM 46.4 °F 41.9 °F 42.8 °F 87% 29.87 in 5.0 mi SSE 9.2 mph 16.1 mph N/A Rain Light Rain
3:49 PM 46.4 °F 40.7 °F 42.8 °F 87% 29.88 in 10.0 mi ESE 12.7 mph - N/A   Overcast
3:53 PM 46.4 °F 40.7 °F 42.8 °F 87% 29.88 in 10.0 mi ESE 12.7 mph - N/A   Overcast
4:53 PM 46.4 °F 40.7 °F 42.8 °F 87% 29.89 in 10.0 mi SE 12.7 mph - N/A   Overcast
5:53 PM 44.6 °F 40.7 °F 39.2 °F 81% 29.90 in 10.0 mi SE 6.9 mph - N/A   Overcast
6:53 PM 44.6 °F 41.4 °F 42.8 °F 93% 29.89 in 10.0 mi SE 5.8 mph - N/A   Scattered Clouds
7:53 PM 44.6 °F 41.4 °F 41.0 °F 87% 29.89 in 10.0 mi SE 5.8 mph - N/A   Overcast
8:53 PM 42.8 °F 40.1 °F 39.2 °F 87% 29.91 in 10.0 mi South 4.6 mph - N/A   Mostly Cloudy
9:14 PM 42.1 °F 39.2 °F 39.9 °F 92% 29.91 in 10.0 mi South 4.6 mph - N/A   Mostly Cloudy
9:42 PM 41.0 °F 38.0 °F 39.9 °F 96% 29.91 in 10.0 mi South 4.6 mph - N/A   Mostly Cloudy
9:53 PM 41.0 °F 37.1 °F 39.0 °F 93% 29.92 in 10.0 mi South 5.8 mph - N/A   Mostly Cloudy
10:53 PM 39.9 °F 35.8 °F 39.0 °F 97% 29.94 in 10.0 mi South 5.8 mph - N/A   Scattered Clouds
11:53 PM 39.0 °F 35.7 °F 37.0 °F 93% 29.94 in 10.0 mi South 4.6 mph - N/A   Clear